Atlanta, GA (30321)

9:10 PM EDT on July 01, 2015 (GMT -0400)
Georgia Tech (Midtown) | | Change Station
CLOSE
Current Station
Personal Weather Station
Location: Atlanta, GA
Elevation: 935 ft
Nearby Weather Stations

Elev 935 ft 33.78 °N, 84.40 °W | Updated 12 seconds ago

Rain
Rain
70.9 °F
Feels Like 70.9 °F
N
0.0
Wind Variable Wind from SW
Gusts 1.0 mph

Today
High -- | Low -- °F
--% Chance of Precip.
Yesterday
High -- | Low -- °F
Precip. -- in
6:30 AM 8:52 PM
Full, 100% visible
Pressure 30.04 in
Visibility 3.0 miles
Clouds Scattered Clouds 2900 ft
Overcast 11000 ft
Dew Point 67 °F
Humidity 87%
Rainfall 0.32 in
Snow Depth Not available.
UV 0 out of 12
Pollen 3.20 out of 12
Air Quality Not available.
Flu Activity Not available.
METAR KFTY 020053Z 25003KT 3SM BR SCT029 OVC110 22/20 A3006 RMK AO2 RAE43 SLP170 P0004 T02170200

More Conditions Fewer Conditions

Pressure 30.04 in
Visibility 3.0 miles
Clouds Scattered Clouds 2900 ft
Overcast 11000 ft
Dew Point 67 °F
Humidity 87%
Rainfall 0.32 in
Snow Depth Not available.
UV 0 out of 12
Pollen 3.20 out of 12
Air Quality Not available.
Flu Activity Not available.
METAR KFTY 020053Z 25003KT 3SM BR SCT029 OVC110 22/20 A3006 RMK AO2 RAE43 SLP170 P0004 T02170200

More Conditions Fewer Conditions

10-Day Weather Forecast

×

Almanac

Astronomy

Jul. 01, 2015 Rise Set
Actual Time
Civil Twilight
Nautical Twilight
Astronomical Twilight
Moon
Length of Visible Light
Length of Day
Tomorrow will be .
, % of the Moon is Illuminated

Today's Extremes

State Highs State Lows

Community

WunderPhotos

Upload Photos

1,834,365 photos uploaded!

WunderBlogs® & News

Nearby

Air Quality

  Air Quality AQ Index Pollutant
Not available.

Snow Depth

Station Depth Elevation

Earthquake Activity

City Distance Mag. Time & Date
Minimum magnitude displayed is 2.5.

Coastal Water Temperatures

Place Temperature

Stations

Nearby Weather Stations

Station Location Temp. Windchill Dew Point Humidity Wind Precip. Elev Updated Type